DRUMS TARGET-1

导读

DRUMS TARGET-1是日本于2021年11月9日发射的技术验证卫星,隶属于日本快速反应卫星体系,作为原型试验星,主要用于验证快速响应太空任务相关技术,补充日本现有侦察卫星体系的应急能力,可在主卫星故障时提供替代观测方案,重量约百公斤级,具备较高光学观测分辨率,服务于国家安全监测与灾害响应需求,是日本航天推进快速响应星座建设的重要先导试验节点。

Basic Information
目录编号:
55685
目录名称:
DRUMS TARGET-1
国际标识:
2021-102M
轨道中心:
EARTH
卫星名称:
DRUMS TARGET-1
卫星全名:
--
卫星状态:
已陨落 最后检测时间 2024-11-05
发射日期:
2021-11-09 UTC
国别 :
日本 (JP)
星等 :
--
Orbit Information
数据来源 国际轨道数据
星历时间: 2024-10-31T12:46:39+0800
轨道信息已过期621天
半长轴: 6602.075km
偏心率: 0.0006827
轨道倾角: 97.376°
近地点辐角 278.922°
升交点赤经 2.029°
平近点角 81.129°
近地点: 219.432km
远地点: 228.448km
周期: 88.978分钟
每日圈数: 16.183861
Detailed Information
使用方式:
暂无